TimeCDT,TemperatureF,Dew PointF,Humidity,Sea Level PressureIn,VisibilityMPH,Wind Direction,Wind SpeedMPH,Gust SpeedMPH,PrecipitationIn,Events,Conditions,WindDirDegrees,DateUTC
12:15 AM,79.3,74.3,84,30.03,10.0,SSW,11.5,-,N/A,,Clear,200,2013-08-27 05:15:00
12:35 AM,77.0,72.1,85,30.03,10.0,SSW,10.4,-,N/A,,Clear,200,2013-08-27 05:35:00
12:55 AM,77.0,72.5,86,30.02,10.0,SSW,10.4,-,N/A,,Clear,200,2013-08-27 05:55:00
1:15 AM,77.0,72.1,85,30.02,10.0,SSW,9.2,-,N/A,,Clear,200,2013-08-27 06:15:00
1:35 AM,77.0,72.3,85,30.02,10.0,SSW,8.1,-,N/A,,Clear,200,2013-08-27 06:35:00
1:55 AM,77.0,72.1,85,30.01,10.0,SSW,9.2,-,N/A,,Clear,210,2013-08-27 06:55:00
2:15 AM,78.1,72.9,84,30.01,10.0,SSW,11.5,-,N/A,,Clear,210,2013-08-27 07:15:00
2:35 AM,77.0,72.0,84,29.99,10.0,SW,12.7,-,N/A,,Clear,220,2013-08-27 07:35:00
2:55 AM,76.8,72.0,85,29.99,10.0,SW,9.2,-,N/A,,Clear,220,2013-08-27 07:55:00
3:15 AM,75.9,71.2,85,30.00,10.0,SW,9.2,-,N/A,,Clear,220,2013-08-27 08:15:00
3:35 AM,74.3,70.2,87,29.99,10.0,SW,11.5,-,N/A,,Clear,220,2013-08-27 08:35:00
3:55 AM,74.3,70.2,87,29.99,10.0,SW,9.2,-,N/A,,Clear,230,2013-08-27 08:55:00
4:15 AM,74.3,70.0,86,29.99,10.0,SW,9.2,-,N/A,,Clear,230,2013-08-27 09:15:00
4:35 AM,74.3,70.7,88,29.99,10.0,SW,8.1,-,N/A,,Clear,230,2013-08-27 09:35:00
4:55 AM,74.3,70.7,88,29.99,10.0,SW,6.9,-,N/A,,Clear,220,2013-08-27 09:55:00
5:15 AM,74.3,70.7,88,30.00,10.0,SW,6.9,-,N/A,,Clear,230,2013-08-27 10:15:00
5:35 AM,74.3,70.3,87,30.00,10.0,WSW,8.1,-,N/A,,Clear,240,2013-08-27 10:35:00
5:55 AM,74.3,70.7,88,30.01,10.0,SW,6.9,-,N/A,,Clear,230,2013-08-27 10:55:00
6:15 AM,74.3,70.7,88,30.01,10.0,WSW,6.9,-,N/A,,Clear,240,2013-08-27 11:15:00
6:35 AM,74.3,70.3,87,30.01,10.0,WSW,6.9,-,N/A,,Clear,240,2013-08-27 11:35:00
6:55 AM,74.3,70.7,88,30.01,10.0,SW,8.1,-,N/A,,Clear,230,2013-08-27 11:55:00
7:15 AM,74.3,70.2,87,30.01,10.0,WSW,9.2,-,N/A,,Clear,240,2013-08-27 12:15:00
7:35 AM,74.8,70.3,86,30.01,10.0,SW,10.4,-,N/A,,Clear,230,2013-08-27 12:35:00
7:55 AM,77.4,72.1,84,30.01,10.0,SW,10.4,-,N/A,,Clear,230,2013-08-27 12:55:00
8:15 AM,79.3,73.4,82,30.00,10.0,SW,11.5,-,N/A,,Clear,230,2013-08-27 13:15:00
8:35 AM,79.3,72.5,79,29.99,10.0,SW,11.5,17.3,N/A,,Clear,230,2013-08-27 13:35:00
8:55 AM,81.9,73.9,77,29.99,10.0,SW,12.7,17.3,N/A,,Clear,230,2013-08-27 13:55:00
9:15 AM,81.9,73.0,74,29.98,10.0,WSW,13.8,20.7,N/A,,Clear,240,2013-08-27 14:15:00
9:35 AM,84.4,74.5,72,29.98,10.0,WSW,11.5,-,N/A,,Clear,240,2013-08-27 14:35:00
9:55 AM,84.0,74.5,73,29.98,10.0,SW,12.7,17.3,N/A,,Clear,230,2013-08-27 14:55:00
10:15 AM,84.4,74.1,71,29.98,10.0,SW,11.5,-,N/A,,Clear,230,2013-08-27 15:15:00
10:35 AM,85.6,74.3,69,29.98,10.0,WSW,9.2,-,N/A,,Clear,240,2013-08-27 15:35:00
10:55 AM,86.0,73.6,66,29.97,10.0,SW,9.2,-,N/A,,Clear,230,2013-08-27 15:55:00
11:15 AM,87.3,74.3,65,29.97,10.0,SW,13.8,-,N/A,,Clear,220,2013-08-27 16:15:00
11:35 AM,87.8,74.1,64,29.97,10.0,SW,11.5,17.3,N/A,,Clear,230,2013-08-27 16:35:00
11:55 AM,88.2,74.7,64,29.96,10.0,SW,13.8,18.4,N/A,,Clear,230,2013-08-27 16:55:00
12:15 PM,89.6,74.8,62,29.96,10.0,SSW,15.0,18.4,N/A,,Clear,210,2013-08-27 17:15:00
12:35 PM,91.2,75.6,60,29.95,10.0,SSW,16.1,21.9,N/A,,Clear,210,2013-08-27 17:35:00
12:55 PM,92.1,75.4,58,29.94,10.0,SW,16.1,-,N/A,,Clear,220,2013-08-27 17:55:00
1:15 PM,92.3,75.0,57,29.94,10.0,SW,17.3,-,N/A,,Clear,220,2013-08-27 18:15:00
1:35 PM,93.0,75.4,56,29.93,10.0,SW,15.0,-,N/A,,Clear,230,2013-08-27 18:35:00
1:55 PM,94.6,75.7,54,29.93,10.0,WSW,11.5,21.9,N/A,,Clear,240,2013-08-27 18:55:00
2:15 PM,94.6,76.3,55,29.92,10.0,SW,15.0,-,N/A,,Clear,230,2013-08-27 19:15:00
2:35 PM,94.6,75.2,53,29.92,10.0,SW,11.5,-,N/A,,Clear,220,2013-08-27 19:35:00
2:55 PM,94.6,73.6,50,29.91,10.0,SW,16.1,-,N/A,,Clear,230,2013-08-27 19:55:00
3:15 PM,94.6,74.7,52,29.90,10.0,SW,16.1,21.9,N/A,,Clear,230,2013-08-27 20:15:00
3:35 PM,94.6,74.5,52,29.89,10.0,SSW,16.1,23.0,N/A,,Clear,210,2013-08-27 20:35:00
3:55 PM,94.6,74.1,51,29.89,10.0,SW,16.1,23.0,N/A,,Clear,230,2013-08-27 20:55:00
4:15 PM,94.6,73.9,51,29.89,10.0,SW,19.6,-,N/A,,Clear,220,2013-08-27 21:15:00
4:35 PM,94.6,74.7,52,29.88,10.0,SW,13.8,18.4,N/A,,Clear,220,2013-08-27 21:35:00
4:55 PM,94.6,74.5,52,29.89,10.0,SW,11.5,21.9,N/A,,Clear,230,2013-08-27 21:55:00
5:15 PM,94.6,75.2,53,29.89,10.0,SW,11.5,18.4,N/A,,Clear,230,2013-08-27 22:15:00
5:35 PM,94.6,75.7,54,29.89,10.0,SW,10.4,16.1,N/A,,Clear,230,2013-08-27 22:35:00
5:55 PM,94.6,75.2,53,29.89,10.0,SW,12.7,21.9,N/A,,Clear,230,2013-08-27 22:55:00
6:15 PM,92.3,74.5,56,29.88,10.0,SW,11.5,16.1,N/A,,Clear,230,2013-08-27 23:15:00
6:35 PM,91.8,74.7,57,29.88,10.0,SW,11.5,18.4,N/A,,Clear,230,2013-08-27 23:35:00
6:55 PM,88.7,72.9,59,29.88,10.0,SW,9.2,-,N/A,,Clear,230,2013-08-27 23:55:00
7:15 PM,86.9,73.2,64,29.89,10.0,SW,8.1,-,N/A,,Clear,230,2013-08-28 00:15:00
7:35 PM,84.4,73.6,70,29.89,10.0,SSW,6.9,-,N/A,,Clear,210,2013-08-28 00:35:00
7:55 PM,84.4,74.7,72,29.89,10.0,SSW,6.9,-,N/A,,Clear,210,2013-08-28 00:55:00
8:15 PM,81.9,73.8,76,29.89,10.0,SSW,6.9,-,N/A,,Clear,210,2013-08-28 01:15:00
8:35 PM,82.9,73.9,74,29.90,10.0,SSW,8.1,-,N/A,,Clear,210,2013-08-28 01:35:00
8:55 PM,81.9,73.2,75,29.90,10.0,SW,8.1,-,N/A,,Clear,220,2013-08-28 01:55:00
9:15 PM,81.9,73.0,74,29.91,10.0,SW,5.8,-,N/A,,Clear,230,2013-08-28 02:15:00
9:35 PM,81.9,74.3,78,29.91,10.0,SW,5.8,-,N/A,,Clear,230,2013-08-28 02:35:00
9:55 PM,79.3,72.7,80,29.91,10.0,SW,5.8,-,N/A,,Clear,230,2013-08-28 02:55:00
10:15 PM,79.3,73.8,83,29.92,10.0,SW,6.9,-,N/A,,Clear,220,2013-08-28 03:15:00
10:35 PM,79.3,73.4,82,29.92,10.0,SW,6.9,-,N/A,,Clear,230,2013-08-28 03:35:00
10:55 PM,79.3,73.4,82,29.92,10.0,SW,9.2,-,N/A,,Clear,220,2013-08-28 03:55:00
11:15 PM,79.3,72.9,80,29.91,10.0,SW,8.1,-,N/A,,Clear,220,2013-08-28 04:15:00
11:35 PM,79.3,72.0,78,29.91,10.0,SW,9.2,-,N/A,,Scattered Clouds,230,2013-08-28 04:35:00
11:55 PM,79.5,70.9,75,29.91,10.0,SW,9.2,-,N/A,,Mostly Cloudy,230,2013-08-28 04:55:00